Regional Weather Roundup
Issued by NWS Bismarck, ND

Home | Current Version | Previous Version | Text Only | Print | Product List | Glossary On
Versions: 1 2 3 4 5 6 7 8 9 10 11 12 13 14 15 16 17 18 19 20 21 22 23 24 25 26 27 28 29 30 31 32 33 34 35 36 37 38 39 40 41 42 43 44 45 46 47 48 49 50
000
ASUS43 KBIS 261420
RWRBIS

NWR BROADCAST TEXT
NATIONAL WEATHER SERVICE BISMARCK ND
800 AM CST FRI DEC 26 2014

NOTE: "FAIR" INDICATES FEW OR NO CLOUDS BELOW 12,000 FEET WITH NO
SIGNIFICANT WEATHER AND/OR OBSTRUCTIONS TO VISIBILITY.


CITY           SKY/WX    TMP DP  RH WIND       PRES   REMARKS
WILLISTON      CLOUDY    12   8  84 N8        30.15R WCI   0
MINOT          LGT SNOW   7   3  84 CALM      30.17R
MINOT AFB      CLOUDY     5   3  91 NW8       30.18R WCI  -8
BISMARCK       CLOUDY    13   9  84 NW12      30.17R WCI  -1
DICKINSON      CLOUDY    17  12  80 NW3       30.08R
GARRISON         N/A     12   7  80 N12       30.15R WCI  -2
HETTINGER ARPT CLOUDY    16  10  77 CALM      30.11R
JAMESTOWN      CLOUDY    18  14  84 NW15      30.12R WCI   4
BEACH          CLOUDY    16  14  93 S3        30.09R
CARRINGTON     CLOUDY    10  10 100 MISG      30.16R
CROSBY         CLOUDY     3   1  92 N6        30.17R FOG     WCI  -8
HARVEY         CLOUDY     3   0  85 NW8       30.18R WCI -10
HAZEN          FLURRIES  16  10  79 CALM      30.17R
LINTON         CLOUDY    18  14  86 N10       30.14R WCI   6
MANDAN         CLOUDY    12  10  92 N7        30.15R WCI   2
OAKES            N/A     23  23 100 N13       30.12R FOG     WCI  11
RUGBY          FAIR      -2  -6  84 NW9       30.18R WCI -18
STANLEY        FLURRIES   9   9 100 NW6       30.12S WCI  -1
TIOGA          CLOUDY    10  10 100 NW8       30.15R WCI  -1
WATFORD CITY   CLOUDY    14  10  85 CALM      30.12S
$$

CITY           SKY/WX    TMP DP  RH WIND       PRES   REMARKS
GRAND FORKS    CLOUDY    24  17  74 N9        30.14R WCI  14
GRAND FORKS AF MOCLDY    21  19  93 NW8       30.14R WCI  12
DEVILS LAKE    CLOUDY    12   7  79 NW14      30.13S WCI  -3
FARGO          MOCLDY    23  18  81 N13       30.12R WCI  11
CANDO          CLOUDY     7   5  92 N9        30.16R WCI  -7
CAVALIER       CLOUDY    18  14  86 NW13G21   30.16R WCI   4
GWINNER        CLOUDY    27  25  93 N8        30.12R WCI  18
LANGDON        CLOUDY     7   3  85 N15       30.12R WCI -11
ROLLA          FAIR      -2  -8  78 NW12      30.14R WCI -20
WALHALLA       FLURRIES  12  10  92 W7        30.17R WCI   2
$$

CITY           SKY/WX    TMP DP  RH WIND       PRES   REMARKS
ABERDEEN       CLOUDY    24  20  84 N9        30.12R WCI  14
MOBRIDGE       CLOUDY    23  17  78 N13       30.10R WCI  11
BUFFALO          N/A     19  13  77 N8        30.01R WCI   9
RAPID CITY     CLOUDY    19  15  84 N12       30.07R WCI   7
GLASGOW        MOCLDY    17  13  84 E10       30.07R WCI   5
SIDNEY         CLOUDY    12  10  92 CALM      30.16R
WOLF POINT     CLOUDY    13   9  84 NE7       30.12R WCI   3
GLENDIVE       CLOUDY    18  14  86 E6        30.10R WCI   9
MILES CITY     CLOUDY    21  18  88 SE3       30.08R
BAKER          CLOUDY    20  14  77 SW7       30.08R WCI  11
$$

CITY           SKY/WX    TMP DP  RH WIND       PRES   REMARKS
BILLINGS       MOCLDY     8   5  87 SW17      30.02R WCI -10
GREAT FALLS    CLOUDY    23  20  88 NW16      30.03R WCI  10
REGINA         CLOUDY     1  -2  85 NW2       30.15S
ESTEVAN        FLURRIES  -4  -9  77 NW6       30.16R WCI -16
$$



USA.gov is the U.S. government's official web portal to all federal, state and local government web resources and services.